Date String (YYYY-MM-DD hh:mm:ss) UTC,Instrument flags,absolute air pressure of the measurement (hPa),sample flow rate (lpm),inlet stack bypass flow (lpm),air temperature of the measurement (°C),ambient temperature measured by the external sensor (°C),aerosol sample conditioner tube jacket temperature (°C),OPC LED temperature (°C),internal box temperature (°C),relative humidity of the measurement (%),span deviation,mass concentration of particles derived from Lorenz-Mie calculation of OPC scattering (μg/m³),mass concentration of particles derived from Lorenz-Mie calculation of OPC scattering (μg/m³),mass concentration of particles derived from Lorenz-Mie calculation of OPC scattering (μg/m³)
DateTimeUTC,F1_M11,P_M11,Q1_M11,Q2_M11,T1_M11,T2_M11,T3_M11,T4_M11,T5_M11,U1_M11,ZSPAN_M11,X2_M11,X0_M11,X1_M11
2024-04-06 15:00:00,SystemResetWarning,0810.1,4.99,000.00,019.3,018.7,000.0,027.8,021.0,012.8,0000.0,0000.67,0004.81,0000.21
2024-04-06 15:01:00,SystemResetWarning,0810.1,5.00,000.00,019.3,018.7,000.0,027.8,021.1,012.9,0000.0,0000.65,0005.39,0000.20
2024-04-06 15:02:00,SystemResetWarning,0810.1,4.99,000.00,019.4,018.7,000.0,027.8,021.0,012.8,0000.0,0000.61,0005.20,0000.20
2024-04-06 15:03:00,SystemResetWarning,0810.1,5.00,000.00,019.3,018.7,000.0,027.8,021.0,012.7,0000.0,0000.59,0005.18,0000.19
2024-04-06 15:04:00,SystemResetWarning,0810.1,5.01,000.00,019.3,018.7,000.0,027.8,021.0,012.8,0000.0,0000.58,0005.24,0000.18
2024-04-06 15:05:00,SystemResetWarning,0810.1,5.01,000.00,019.3,018.7,000.0,027.8,021.0,012.4,0000.0,0000.59,0004.38,0000.16
2024-04-06 15:06:00,SystemResetWarning,0810.0,5.00,000.00,019.3,018.7,000.0,027.8,021.0,012.2,0000.0,0000.56,0004.36,0000.15
2024-04-06 15:07:00,SystemResetWarning,0809.9,4.99,000.00,019.3,018.7,000.0,027.8,021.0,012.1,0000.0,0000.50,0004.72,0000.13
2024-04-06 15:08:00,SystemResetWarning,0809.9,4.99,000.00,019.3,018.6,000.0,027.8,020.9,012.2,0000.0,0000.48,0004.67,0000.13
2024-04-06 15:09:00,SystemResetWarning,0810.0,5.00,000.00,019.3,018.6,000.0,027.7,020.9,012.1,0000.0,0000.43,0005.48,0000.12
2024-04-06 15:10:00,SystemResetWarning,0810.0,5.02,000.00,019.3,018.5,000.0,027.7,020.9,012.4,0000.0,0000.38,0005.35,0000.12
2024-04-06 15:11:00,SystemResetWarning,0810.0,5.00,000.00,019.3,018.5,000.0,027.7,020.9,012.7,0000.0,0000.39,0004.67,0000.11
2024-04-06 15:12:00,SystemResetWarning,0810.0,4.99,000.00,019.3,018.5,000.0,027.7,020.9,012.7,0000.0,0000.39,0003.74,0000.11
2024-04-06 15:13:00,SystemResetWarning,0810.0,4.99,000.00,019.3,018.5,000.0,027.7,020.9,012.5,0000.0,0000.39,0003.76,0000.10
2024-04-06 15:14:00,SystemResetWarning,0810.0,5.00,000.00,019.3,018.5,000.0,027.7,020.9,012.6,0000.0,0000.39,0003.75,0000.09
2024-04-06 15:15:00,SystemResetWarning,0810.0,5.00,000.00,019.3,018.5,000.0,027.7,020.9,012.7,0000.0,0000.40,0003.60,0000.09
2024-04-06 15:16:00,SystemResetWarning,0810.0,5.00,000.00,019.2,018.5,000.0,027.7,020.8,013.0,0000.0,0000.34,0003.51,0000.09
2024-04-06 15:17:00,SystemResetWarning,0809.9,5.01,000.00,019.2,018.5,000.0,027.7,020.8,012.9,0000.0,0000.33,0003.08,0000.09
2024-04-06 15:18:00,SystemResetWarning,0809.8,5.00,000.00,019.2,018.5,000.0,027.7,020.8,012.9,0000.0,0000.36,0002.27,0000.09
2024-04-06 15:19:00,SystemResetWarning,0809.9,5.00,000.00,019.2,018.4,000.0,027.6,020.8,013.0,0000.0,0000.36,0002.42,0000.09
2024-04-06 15:20:00,SystemResetWarning,0809.9,5.00,000.00,019.2,018.4,000.0,027.6,020.8,013.2,0000.0,0000.36,0001.25,0000.09
2024-04-06 15:21:00,SystemResetWarning,0810.0,5.00,000.00,019.2,018.4,000.0,027.6,020.7,013.1,0000.0,0000.38,0001.23,0000.09
2024-04-06 15:22:00,SystemResetWarning,0809.9,5.00,000.00,019.2,018.3,000.0,027.6,020.7,012.8,0000.0,0000.35,0001.21,0000.09
2024-04-06 15:23:00,SystemResetWarning,0810.0,5.00,000.00,019.1,018.3,000.0,027.6,020.6,012.5,0000.0,0000.34,0001.17,0000.09
2024-04-06 15:24:00,SystemResetWarning,0810.1,5.00,000.00,019.1,018.3,000.0,027.6,020.6,012.6,0000.0,0000.37,0001.30,0000.09
2024-04-06 15:25:00,SystemResetWarning,0809.9,5.00,000.00,019.1,018.2,000.0,027.6,020.6,013.0,0000.0,0000.40,0001.42,0000.09
2024-04-06 15:26:00,SystemResetWarning,0809.7,5.00,000.00,019.1,018.2,000.0,027.5,020.6,012.9,0000.0,0000.40,0001.55,0000.09
2024-04-06 15:27:00,SystemResetWarning,0809.9,5.00,000.00,019.0,018.2,000.0,027.5,020.5,012.8,0000.0,0000.47,0002.71,0000.10
2024-04-06 15:28:00,SystemResetWarning,0810.1,5.00,000.00,019.0,018.2,000.0,027.5,020.5,012.8,0000.0,0000.51,0003.40,0000.10
2024-04-06 15:29:00,SystemResetWarning,0810.2,5.00,000.00,019.0,018.2,000.0,027.5,020.5,012.8,0000.0,0000.51,0004.59,0000.11
2024-04-06 15:30:00,SystemResetWarning,0810.2,5.00,000.00,019.0,018.2,000.0,027.5,020.6,012.9,0000.0,0000.54,0006.25,0000.11
2024-04-06 15:31:00,SystemResetWarning,0810.0,5.00,000.00,019.0,018.2,000.0,027.5,020.6,013.1,0000.0,0000.54,0006.53,0000.11
2024-04-06 15:32:00,SystemResetWarning,0810.1,5.00,000.00,019.0,018.2,000.0,027.5,020.5,013.1,0000.0,0000.53,0006.91,0000.11
2024-04-06 15:33:00,SystemResetWarning,0810.1,5.00,000.00,019.0,018.1,000.0,027.4,020.5,013.1,0000.0,0000.58,0007.11,0000.11
2024-04-06 15:34:00,SystemResetWarning,0810.2,5.00,000.00,018.9,018.1,000.0,027.4,020.5,013.3,0000.0,0000.62,0007.78,0000.12
2024-04-06 15:35:00,SystemResetWarning,0810.4,5.00,000.00,018.9,018.1,000.0,027.4,020.5,013.5,0000.0,0000.65,0007.89,0000.12
2024-04-06 15:36:00,SystemResetWarning,0810.2,5.00,000.00,018.9,018.1,000.0,027.4,020.5,013.6,0000.0,0000.62,0007.93,0000.13
2024-04-06 15:37:00,SystemResetWarning,0810.2,5.01,000.00,018.9,018.1,000.0,027.4,020.5,013.6,0000.0,0000.61,0007.84,0000.12
2024-04-06 15:38:00,SystemResetWarning,0810.2,4.99,000.00,018.9,018.1,000.0,027.4,020.5,013.1,0000.0,0000.56,0007.64,0000.12
2024-04-06 15:39:00,SystemResetWarning,0810.3,4.99,000.00,018.9,018.1,000.0,027.4,020.4,012.8,0000.0,0000.56,0007.66,0000.12
2024-04-06 15:40:00,SystemResetWarning,0810.2,5.02,000.00,018.9,018.1,000.0,027.4,020.4,013.1,0000.0,0000.55,0006.94,0000.11
2024-04-06 15:41:00,SystemResetWarning,0810.2,5.00,000.00,018.9,018.1,000.0,027.4,020.4,013.1,0000.0,0000.54,0005.56,0000.11
2024-04-06 15:42:00,SystemResetWarning,0810.2,4.99,000.00,018.8,018.0,000.0,027.3,020.4,013.1,0000.0,0000.53,0004.83,0000.11
2024-04-06 15:43:00,SystemResetWarning,0810.2,5.01,000.00,018.8,018.0,000.0,027.3,020.4,013.1,0000.0,0000.56,0004.34,0000.12
2024-04-06 15:44:00,SystemResetWarning,0810.3,5.01,000.00,018.8,018.0,000.0,027.3,020.4,013.3,0000.0,0000.52,0004.18,0000.11
2024-04-06 15:45:00,SystemResetWarning,0810.3,5.00,000.00,018.8,018.0,000.0,027.3,020.4,013.3,0000.0,0000.49,0003.06,0000.11
2024-04-06 15:46:00,SystemResetWarning,0810.4,5.00,000.00,018.8,018.1,000.0,027.3,020.4,013.3,0000.0,0000.45,0002.89,0000.11
2024-04-06 15:47:00,SystemResetWarning,0810.2,5.00,000.00,018.8,018.1,000.0,027.3,020.4,013.5,0000.0,0000.45,0002.60,0000.10
2024-04-06 15:48:00,SystemResetWarning,0810.3,5.00,000.00,018.8,018.1,000.0,027.3,020.4,013.7,0000.0,0000.45,0002.60,0000.11
2024-04-06 15:49:00,SystemResetWarning,0810.3,4.99,000.00,018.8,018.1,000.0,027.3,020.5,013.8,0000.0,0000.44,0001.99,0000.12
2024-04-06 15:50:00,SystemResetWarning,0810.2,5.00,000.00,018.8,018.1,000.0,027.3,020.4,013.7,0000.0,0000.42,0001.19,0000.12
2024-04-06 15:51:00,SystemResetWarning,0810.4,4.99,000.00,018.8,018.1,000.0,027.3,020.4,013.4,0000.0,0000.43,0001.10,0000.12
2024-04-06 15:52:00,SystemResetWarning,0810.5,5.01,000.00,018.8,018.1,000.0,027.3,020.4,013.4,0000.0,0000.45,0001.17,0000.12
2024-04-06 15:53:00,SystemResetWarning,0810.4,5.01,000.00,018.8,018.1,000.0,027.3,020.5,013.6,0000.0,0000.47,0001.54,0000.12
2024-04-06 15:54:00,SystemResetWarning,0810.4,4.99,000.00,018.8,018.1,000.0,027.3,020.4,013.7,0000.0,0000.47,0002.57,0000.12
2024-04-06 15:55:00,SystemResetWarning,0810.3,5.01,000.00,018.8,018.1,000.0,027.3,020.4,013.5,0000.0,0000.53,0002.78,0000.12
2024-04-06 15:56:00,SystemResetWarning,0810.4,5.00,000.00,018.8,018.1,000.0,027.3,020.4,013.3,0000.0,0000.55,0002.85,0000.12
2024-04-06 15:57:00,SystemResetWarning,0810.4,5.00,000.00,018.8,018.1,000.0,027.3,020.4,013.2,0000.0,0000.58,0002.85,0000.12
2024-04-06 15:58:00,SystemResetWarning,0810.4,5.01,000.00,018.8,018.1,000.0,027.3,020.5,013.2,0000.0,0000.60,0003.58,0000.14
2024-04-06 15:59:00,SystemResetWarning,0810.6,5.00,000.00,018.8,018.1,000.0,027.3,020.5,013.3,0000.0,0000.61,0004.04,0000.13
